SCP
0 -0 0 0 0 0 0 0 0 0 0 0 0 -0 0 0 -0 0 0 -0 -0 -0 -0 -0 -0 -0 0 -0 0 0 0 0 0 0 -0 0 0 0 0 0 0 0 0
-0 0 0 0 0 0 -0 0 0 0 0 0 0 -0 -0 -0 -0 -0 0 0 -0 -0 -0 -0 -0 0 0 -0 -0 0 0 0 0 0 0 -0 -0 -0 -0 0 -0 -0 0
-0 -0 0 0 0 0 0 0 0 0 -0 -0 0 -0 0 0 0 -0 -0 0 0 -0 -0 -0 -0 0 0 0 0 0 0 0 0 0 0 0 0 0 0 0 -0 -0 -0
-0 0 -0 0 0 0 0 0 0 0 0 0 0 0 0 0 0 0 -0 -0 0 0 -0 -0 -0 -0 -0 0 0 0 0 0 0 0 0 0 0 -0 0 0 0 0 0
0 0 -0 0 -0 0 -0 0 0 0 0 0 0 0 0 0 0 0 0 -0 -0 0 0 -0 0 -0 -0 -0 0 0 0 0 0 0 0 0 0 0 0 -0 0 0 -0
-0 -0 -0 0 0 0 0 0 0 0 0 -0 -0 0 0 0 0 0 0 0 0 -0 0 -0 0 0 -0 -0 0 0 0 0 0 0 0 0 0 0 0 0 0 0 0
-0 0 -0 0 0 0 0 0 0 0 0 0 0 0 0 -0 0 -0 0 -0 0 -0 0 0 -0 0 0 -0 0 0 0 0 0 0 0 0 0 -0 -0 -0 -0 -0 0
-0 -0 -0 0 0 0 0 0 0 -0 -0 0 -0 0 0 0 0 0 0 -0 0 0 0 0 0 0 0 0 0 0 0 0 0 0 0 0 0 0 0 0 0 0 0
-0 -0 -0 0 -0 0 0 0 0 0 0 0 -0 -0 0 0 0 0 0 0 -0 0 0 0 0 0 0 0 0 0 0 0 0 0 0 0 0 0 0 0 0 0 0
-0 -0 -0 -0 -0 -0 -0 -0 -0 0 0 0 -0 -0 -0 -0 0 0 0 0 0 0 0 0 0 0 0 0 0 0 0 0 0 0 0 0 0 0 0 0 0 0 0
-0 -0 -0 -0 -0 -0 -0 -0 -0 0 -0 -0 0 -0 -0 0 0 0 0 0 0 0 0 0 0 0 0 0 0 0 0 0 0 0 0 0 0 0 0 0 0 0 0
-0 -0 -0 -0 -0 -0 -0 -0 -0 -0 -0 -0 -0 -0 -0 -0 0 0 0 0 0 0 0 0 0 0 0 0 0 0 0 0 0 0 0 0 0 0 0 0 0 0 0
-0 -0 -0 -0 -0 -0 0 -0 -0 -0 -0 0 -0 -0 -0 -0 -0 -0 -0 0 0 0 0 0 0 0 0 0 0 0 0 0 0 0 0 0 0 0 0 0 0 0 0
0 -0 -1 -0 -0 -0 -0 0 0 0 -0 0 0 -0 -0 -0 -0 -0 -0 -0 -0 0 0 0 0 0 0 0 0 0 0 0 0 0 0 0 0 0 0 0 0 0 0
-0 1 -1 -1 -1 -0 0 0 -0 0 0 -0 0 0 -0 -0 -0 0 0 -0 0 0 0 1 0 0 0 0 0 0 0 0 0 0 0 0 0 0 0 0 0 0 0
0 1 -0 -1 -1 -0 0 0 0 -0 0 0 0 0 0 0 -0 0 0 0 0 0 0 0 0 0 0 0 0 0 0 0 0 0 0 0 0 0 0 0 0 0 0
0 -0 2 1 0 -0 -0 0 0 -0 0 0 0 0 0 0 0 0 0 0 0 0 0 0 1 2 1 1 0 1 0 0 0 0 0 0 0 0 0 0 0 0 0
0 0 0 1 1 0 -0 -0 -0 0 0 0 0 0 0 0 0 0 1 0 0 0 0 0 1 2 2 1 2 1 0 0 0 0 0 0 0 0 0 0 0 0 0
-0 -0 0 0 1 0 -0 -0 -0 0 0 0 0 0 0 1 1 1 1 1 1 1 2 1 1 2 2 2 1 1 2 1 0 0 0 0 0 0 0 0 0 0 0
-1 -1 -1 -1 -1 -1 -1 -1 -0 -0 -0 0 1 0 0 0 1 1 1 1 1 1 1 2 1 1 2 2 2 2 1 1 1 0 0 0 0 0 0 0 0 0 0
-1 -1 -1 -1 -1 -1 -1 -1 -0 -0 0 0 0 0 0 0 0 1 2 1 1 1 2 1 1 1 1 3 1 2 1 1 1 1 1 0 0 0 0 0 0 0 0
-1 -1 -1 -1 -2 -1 -2 -2 -1 -0 -0 0 0 0 1 1 1 1 1 1 2 1 2 2 1 1 1 1 2 1 1 1 0 2 1 0 1 1 0 0 0 0 0
-1 -1 -1 -1 -1 -1 -1 -1 -1 0 1 1 1 1 2 3 2 2 1 1 1 1 1 2 2 1 2 1 2 3 2 1 1 1 0 0 1 0 0 0 0 0 0
-1 -0 -0 -0 -0 -0 -0 -0 0 1 2 2 2 3 4 4 5 5 5 3 1 1 0 1 2 2 3 3 3 3 2 2 2 1 0 0 0 0 0 0 0 0 0
0 0 1 1 -1 -1 -1 0 0 2 3 3 4 6 6 4 5 4 7 5 3 2 1 1 1 0 0 0 0 1 2 1 0 0 0 0 0 0 0 0 0 0 0
2 2 1 1 0 -0 1 0 0 4 4 5 5 5 3 7 6 3 5 7 5 5 3 0 0 0 0 0 0 1 0 0 0 0 0 0 0 0 0 0 0 0 0
Wind_Speed_500mb
2 5 6 9 3 4 1 9 5 9 9 12 5 17 6 11 11 5 6 10 9 2 6 8 10 8 8 6 7 6 4 4 4 4 3 4 4 5 5 6 8 8 8
3 4 10 8 2 5 12 4 10 8 11 14 12 12 8 7 2 7 4 8 9 1 2 6 7 8 7 6 6 5 3 4 7 5 6 6 7 6 9 10 9 10 10
10 6 7 6 3 6 11 10 6 10 11 8 7 9 4 1 8 11 5 10 6 11 6 3 5 7 6 6 8 10 7 6 6 7 9 8 7 7 9 12 13 12 13
17 10 6 8 4 4 11 4 8 11 10 4 2 7 5 5 5 15 1 8 6 4 11 11 9 4 2 6 9 7 7 11 10 9 8 8 9 11 10 10 11 12 13
16 11 8 11 5 2 17 9 6 7 3 3 3 6 11 5 6 6 13 4 2 6 3 9 9 7 7 3 2 5 10 10 12 15 16 14 13 13 13 12 12 12 13
21 12 6 7 4 4 4 9 4 8 8 8 11 12 2 3 13 8 6 4 11 5 4 5 8 8 5 8 6 6 6 8 11 11 12 15 16 18 18 18 18 19 19
18 21 16 15 14 8 8 6 9 7 4 8 16 16 5 13 12 7 3 19 15 10 13 15 13 3 9 10 7 5 4 3 7 11 13 8 9 13 14 18 21 21 22
22 25 18 6 7 14 17 6 17 17 8 9 15 15 15 15 11 16 14 16 9 19 8 4 8 9 4 6 8 8 9 7 6 6 4 3 5 6 9 12 16 18 19
30 21 26 16 18 17 13 4 9 13 11 5 12 5 7 11 24 12 15 13 14 7 4 6 10 7 5 2 12 4 3 2 4 2 3 5 7 8 8 9 11 14 15
27 32 27 25 26 15 18 10 3 11 11 14 4 19 6 4 12 20 16 21 19 14 8 8 5 1 15 9 7 5 3 2 7 8 8 8 10 11 13 13 14 14 15
38 32 35 29 27 24 21 14 17 17 15 14 5 9 13 7 5 10 27 22 11 20 18 19 13 7 5 9 8 3 4 6 8 8 6 8 7 10 13 15 16 14 14
42 38 37 37 32 22 32 27 30 22 24 21 18 15 10 14 8 13 17 31 25 26 19 15 22 13 14 15 9 9 2 3 4 1 2 5 9 11 13 14 14 16 17
42 42 35 43 45 39 31 27 21 20 23 28 28 26 23 17 16 15 21 16 34 24 21 21 21 20 21 21 25 20 17 15 12 10 10 12 14 17 20 21 21 22 22
41 45 38 38 33 39 33 39 38 30 27 27 25 31 28 20 18 22 20 17 10 17 25 15 23 21 20 26 27 25 26 25 23 23 21 22 23 24 26 29 30 31 31
48 35 42 41 38 34 49 46 43 37 27 28 26 26 33 31 24 24 25 26 20 19 28 33 30 27 24 23 30 38 36 36 33 28 28 27 28 28 26 30 34 34 33
49 37 44 46 42 35 46 44 48 45 41 42 34 31 29 33 31 29 31 28 29 25 23 8 24 28 30 33 31 34 30 32 29 28 25 26 26 24 25 29 32 35 35
68 56 37 49 52 43 41 55 55 49 47 47 45 39 39 33 34 33 36 34 32 29 30 23 21 26 28 27 31 35 37 38 33 28 20 22 25 24 30 32 33 36 33
66 62 65 49 56 51 42 54 61 58 50 52 52 52 54 48 46 43 42 39 37 34 33 30 25 30 36 35 33 41 44 28 32 25 29 35 30 32 35 30 40 36 33
77 76 71 71 71 67 59 53 58 61 60 62 64 61 58 62 56 55 56 50 45 44 47 50 46 48 44 40 35 35 33 36 38 38 34 34 36 35 32 31 28 22 18
86 81 81 80 78 78 73 66 62 62 66 67 70 73 71 66 64 61 60 63 62 57 56 62 58 54 41 44 41 40 36 33 32 31 37 36 35 40 34 32 28 28 24
88 89 86 85 82 80 81 76 71 68 69 72 72 78 83 80 73 67 64 64 67 70 65 62 58 54 49 41 46 44 42 39 40 33 37 37 32 29 31 34 35 35 30
85 84 89 89 87 88 86 83 78 77 79 77 77 79 82 85 83 77 75 70 70 72 78 77 69 67 58 46 40 41 43 38 35 38 41 43 43 43 31 33 31 31 32
89 87 87 89 93 95 93 86 82 82 81 82 83 83 82 86 89 93 87 82 82 80 76 74 75 74 57 40 35 36 37 43 48 48 49 51 48 52 34 26 28 24 27
95 95 92 92 94 99 98 94 88 85 88 91 93 94 93 92 92 90 88 88 87 88 86 83 79 65 52 49 48 48 56 64 68 63 60 61 49 40 22 23 27 28 33
93 98 100 101 103 105 104 101 92 88 92 99 108 109 109 106 104 95 90 91 92 91 87 92 81 71 62 59 72 66 73 65 62 64 51 51 32 27 24 25 23 29 29
92 91 97 100 102 105 103 100 94 90 99 114 111 116 116 119 112 105 99 98 98 104 92 92 91 90 90 76 86 81 75 65 56 50 43 45 25 23 30 20 20 19 22
Wind_Direction_500mb
171 48 51 158 159 57 183 61 88 133 102 99 79 95 114 72 186 153 105 55 355 227 177 169 164 171 175 160 162 169 178 195 210 226 224 269 285 302 310 325 323 319 324
232 171 188 145 174 81 64 72 103 162 90 74 107 134 77 127 82 68 81 71 55 97 232 191 170 187 179 190 191 201 193 216 229 257 269 254 266 292 315 317 315 310 320
220 203 82 91 87 0 80 63 67 29 105 103 110 126 123 117 223 218 31 356 71 88 86 67 236 206 195 202 210 225 225 241 256 247 256 260 264 277 292 309 318 318 311
189 158 207 156 78 140 143 106 46 134 71 51 280 67 34 337 102 150 96 324 324 265 97 87 67 38 213 234 242 239 235 239 247 254 257 264 261 269 285 285 301 314 313
195 198 235 271 89 31 109 99 162 107 121 87 256 141 120 222 181 125 151 112 289 270 281 86 85 67 28 32 27 268 253 258 264 256 258 256 263 277 282 290 290 287 298
243 214 229 257 165 106 124 164 180 118 87 273 69 126 194 122 144 73 116 268 175 211 109 16 32 7 334 313 323 331 310 274 267 268 267 261 259 262 273 281 280 286 288
248 232 203 238 236 229 222 274 176 72 144 344 116 119 101 171 128 136 135 103 121 76 81 21 356 274 322 306 313 266 302 248 280 279 266 277 273 283 284 281 282 288 287
239 242 230 246 210 228 241 212 196 212 183 181 176 186 169 154 152 145 94 103 99 147 131 178 274 279 33 299 12 313 274 259 253 264 262 298 292 291 290 294 298 293 296
231 246 233 210 230 221 248 226 170 169 171 178 195 169 155 178 165 189 177 159 151 169 256 356 166 170 233 283 283 337 283 229 191 140 108 78 41 2 350 322 317 317 308
233 229 241 222 227 215 236 229 230 191 195 215 290 215 217 169 161 179 179 194 194 197 205 219 262 142 192 246 268 334 5 129 109 108 89 73 59 35 14 4 352 331 325
242 226 230 233 246 217 212 217 222 211 194 179 192 227 229 167 199 167 182 207 219 216 227 203 261 282 217 263 227 161 119 114 117 104 94 75 42 25 16 10 11 359 346
236 239 223 232 236 237 198 213 238 239 191 200 184 204 221 219 198 211 239 219 221 211 236 218 201 258 252 279 281 253 243 163 163 113 5 344 340 348 353 348 342 343 345
225 236 238 224 229 236 218 229 235 238 210 207 205 201 195 221 239 230 247 249 217 214 205 226 231 250 230 256 263 275 259 276 253 254 267 287 307 321 322 327 326 322 320
225 232 237 235 233 234 232 213 227 233 235 218 214 203 190 201 233 241 234 239 255 226 199 233 219 242 242 233 256 263 257 267 277 273 273 285 297 306 310 315 313 312 305
218 234 236 230 231 237 233 218 218 230 230 237 229 211 205 195 212 235 230 227 245 265 247 232 211 224 229 244 249 253 262 269 270 272 279 282 284 292 302 308 308 304 301
215 222 238 237 242 252 223 224 224 224 229 235 236 230 219 211 199 224 234 234 228 243 270 268 225 224 232 234 250 266 264 259 258 260 263 270 273 277 294 305 310 307 299
217 210 222 239 240 249 232 218 224 228 233 232 241 236 237 229 216 220 240 227 235 232 239 233 254 243 248 251 242 249 261 269 256 252 251 263 265 270 290 297 300 304 294
229 226 219 226 240 247 246 232 230 226 225 244 244 242 241 241 235 224 228 241 234 232 241 238 240 248 250 260 268 262 262 262 273 280 266 259 272 287 289 301 305 302 294
234 235 236 231 235 246 249 246 241 238 231 232 247 248 246 245 246 237 231 233 236 232 230 238 235 240 253 260 263 268 273 266 239 253 258 267 276 277 281 302 304 319 312
239 239 239 242 240 244 249 250 248 244 245 242 242 252 256 250 252 251 243 240 243 242 240 240 243 241 239 252 261 265 269 264 265 251 259 267 271 273 287 294 293 308 299
239 241 242 243 245 245 246 247 247 247 249 250 247 247 253 258 257 256 254 251 246 240 240 245 244 247 236 238 243 253 263 267 273 270 250 257 256 269 282 285 295 299 295
241 240 241 243 244 244 246 248 248 245 247 249 252 252 251 256 261 260 259 256 253 248 242 240 244 247 250 240 242 254 263 251 256 268 256 255 256 261 269 286 292 284 280
239 240 240 242 244 246 248 250 249 247 248 249 254 256 255 255 258 259 260 263 262 257 250 245 241 245 249 246 239 241 239 250 257 256 261 266 264 268 267 275 287 282 302
237 239 240 242 244 246 248 250 251 246 248 251 254 254 258 259 257 258 259 261 260 255 250 246 244 240 232 225 234 240 250 258 264 257 263 268 271 267 268 266 283 294 302
238 240 242 243 245 249 251 253 252 245 241 249 253 253 253 256 259 257 255 258 259 257 256 247 238 240 233 250 265 249 253 258 253 261 268 267 263 251 246 260 277 287 299
240 238 242 246 249 253 255 255 249 245 247 250 248 253 253 255 258 256 253 254 253 256 254 244 233 237 247 264 262 246 260 256 249 259 255 253 240 229 241 262 265 286 306
Wind_Speed_850mb
2 5 6 9 3 4 1 9 5 9 9 12 5 17 6 11 11 5 6 10 9 2 6 8 10 8 8 6 7 6 4 4 4 4 3 4 4 5 5 6 8 8 8
3 4 10 8 2 5 12 4 10 8 11 14 12 12 8 7 2 7 4 8 9 1 2 6 7 8 7 6 6 5 3 4 7 5 6 6 7 6 9 10 9 10 10
10 6 7 6 3 6 11 10 6 10 11 8 7 9 4 1 8 11 5 10 6 11 6 3 5 7 6 6 8 10 7 6 6 7 9 8 7 7 9 12 13 12 13
17 10 6 8 4 4 11 4 8 11 10 4 2 7 5 5 5 15 1 8 6 4 11 11 9 4 2 6 9 7 7 11 10 9 8 8 9 11 10 10 11 12 13
16 11 8 11 5 2 17 9 6 7 3 3 3 6 11 5 6 6 13 4 2 6 3 9 9 7 7 3 2 5 10 10 12 15 16 14 13 13 13 12 12 12 13
21 12 6 7 4 4 4 9 4 8 8 8 11 12 2 3 13 8 6 4 11 5 4 5 8 8 5 8 6 6 6 8 11 11 12 15 16 18 18 18 18 19 19
18 21 16 15 14 8 8 6 9 7 4 8 16 16 5 13 12 7 3 19 15 10 13 15 13 3 9 10 7 5 4 3 7 11 13 8 9 13 14 18 21 21 22
22 25 18 6 7 14 17 6 17 17 8 9 15 15 15 15 11 16 14 16 9 19 8 4 8 9 4 6 8 8 9 7 6 6 4 3 5 6 9 12 16 18 19
30 21 26 16 18 17 13 4 9 13 11 5 12 5 7 11 24 12 15 13 14 7 4 6 10 7 5 2 12 4 3 2 4 2 3 5 7 8 8 9 11 14 15
27 32 27 25 26 15 18 10 3 11 11 14 4 19 6 4 12 20 16 21 19 14 8 8 5 1 15 9 7 5 3 2 7 8 8 8 10 11 13 13 14 14 15
38 32 35 29 27 24 21 14 17 17 15 14 5 9 13 7 5 10 27 22 11 20 18 19 13 7 5 9 8 3 4 6 8 8 6 8 7 10 13 15 16 14 14
42 38 37 37 32 22 32 27 30 22 24 21 18 15 10 14 8 13 17 31 25 26 19 15 22 13 14 15 9 9 2 3 4 1 2 5 9 11 13 14 14 16 17
42 42 35 43 45 39 31 27 21 20 23 28 28 26 23 17 16 15 21 16 34 24 21 21 21 20 21 21 25 20 17 15 12 10 10 12 14 17 20 21 21 22 22
41 45 38 38 33 39 33 39 38 30 27 27 25 31 28 20 18 22 20 17 10 17 25 15 23 21 20 26 27 25 26 25 23 23 21 22 23 24 26 29 30 31 31
48 35 42 41 38 34 49 46 43 37 27 28 26 26 33 31 24 24 25 26 20 19 28 33 30 27 24 23 30 38 36 36 33 28 28 27 28 28 26 30 34 34 33
49 37 44 46 42 35 46 44 48 45 41 42 34 31 29 33 31 29 31 28 29 25 23 8 24 28 30 33 31 34 30 32 29 28 25 26 26 24 25 29 32 35 35
68 56 37 49 52 43 41 55 55 49 47 47 45 39 39 33 34 33 36 34 32 29 30 23 21 26 28 27 31 35 37 38 33 28 20 22 25 24 30 32 33 36 33
66 62 65 49 56 51 42 54 61 58 50 52 52 52 54 48 46 43 42 39 37 34 33 30 25 30 36 35 33 41 44 28 32 25 29 35 30 32 35 30 40 36 33
77 76 71 71 71 67 59 53 58 61 60 62 64 61 58 62 56 55 56 50 45 44 47 50 46 48 44 40 35 35 33 36 38 38 34 34 36 35 32 31 28 22 18
86 81 81 80 78 78 73 66 62 62 66 67 70 73 71 66 64 61 60 63 62 57 56 62 58 54 41 44 41 40 36 33 32 31 37 36 35 40 34 32 28 28 24
88 89 86 85 82 80 81 76 71 68 69 72 72 78 83 80 73 67 64 64 67 70 65 62 58 54 49 41 46 44 42 39 40 33 37 37 32 29 31 34 35 35 30
85 84 89 89 87 88 86 83 78 77 79 77 77 79 82 85 83 77 75 70 70 72 78 77 69 67 58 46 40 41 43 38 35 38 41 43 43 43 31 33 31 31 32
89 87 87 89 93 95 93 86 82 82 81 82 83 83 82 86 89 93 87 82 82 80 76 74 75 74 57 40 35 36 37 43 48 48 49 51 48 52 34 26 28 24 27
95 95 92 92 94 99 98 94 88 85 88 91 93 94 93 92 92 90 88 88 87 88 86 83 79 65 52 49 48 48 56 64 68 63 60 61 49 40 22 23 27 28 33
93 98 100 101 103 105 104 101 92 88 92 99 108 109 109 106 104 95 90 91 92 91 87 92 81 71 62 59 72 66 73 65 62 64 51 51 32 27 24 25 23 29 29
92 91 97 100 102 105 103 100 94 90 99 114 111 116 116 119 112 105 99 98 98 104 92 92 91 90 90 76 86 81 75 65 56 50 43 45 25 23 30 20 20 19 22
Wind_Direction_850mb
171 48 51 158 159 57 183 61 88 133 102 99 79 95 114 72 186 153 105 55 355 227 177 169 164 171 175 160 162 169 178 195 210 226 224 269 285 302 310 325 323 319 324
232 171 188 145 174 81 64 72 103 162 90 74 107 134 77 127 82 68 81 71 55 97 232 191 170 187 179 190 191 201 193 216 229 257 269 254 266 292 315 317 315 310 320
220 203 82 91 87 0 80 63 67 29 105 103 110 126 123 117 223 218 31 356 71 88 86 67 236 206 195 202 210 225 225 241 256 247 256 260 264 277 292 309 318 318 311
189 158 207 156 78 140 143 106 46 134 71 51 280 67 34 337 102 150 96 324 324 265 97 87 67 38 213 234 242 239 235 239 247 254 257 264 261 269 285 285 301 314 313
195 198 235 271 89 31 109 99 162 107 121 87 256 141 120 222 181 125 151 112 289 270 281 86 85 67 28 32 27 268 253 258 264 256 258 256 263 277 282 290 290 287 298
243 214 229 257 165 106 124 164 180 118 87 273 69 126 194 122 144 73 116 268 175 211 109 16 32 7 334 313 323 331 310 274 267 268 267 261 259 262 273 281 280 286 288
248 232 203 238 236 229 222 274 176 72 144 344 116 119 101 171 128 136 135 103 121 76 81 21 356 274 322 306 313 266 302 248 280 279 266 277 273 283 284 281 282 288 287
239 242 230 246 210 228 241 212 196 212 183 181 176 186 169 154 152 145 94 103 99 147 131 178 274 279 33 299 12 313 274 259 253 264 262 298 292 291 290 294 298 293 296
231 246 233 210 230 221 248 226 170 169 171 178 195 169 155 178 165 189 177 159 151 169 256 356 166 170 233 283 283 337 283 229 191 140 108 78 41 2 350 322 317 317 308
233 229 241 222 227 215 236 229 230 191 195 215 290 215 217 169 161 179 179 194 194 197 205 219 262 142 192 246 268 334 5 129 109 108 89 73 59 35 14 4 352 331 325
242 226 230 233 246 217 212 217 222 211 194 179 192 227 229 167 199 167 182 207 219 216 227 203 261 282 217 263 227 161 119 114 117 104 94 75 42 25 16 10 11 359 346
236 239 223 232 236 237 198 213 238 239 191 200 184 204 221 219 198 211 239 219 221 211 236 218 201 258 252 279 281 253 243 163 163 113 5 344 340 348 353 348 342 343 345
225 236 238 224 229 236 218 229 235 238 210 207 205 201 195 221 239 230 247 249 217 214 205 226 231 250 230 256 263 275 259 276 253 254 267 287 307 321 322 327 326 322 320
225 232 237 235 233 234 232 213 227 233 235 218 214 203 190 201 233 241 234 239 255 226 199 233 219 242 242 233 256 263 257 267 277 273 273 285 297 306 310 315 313 312 305
218 234 236 230 231 237 233 218 218 230 230 237 229 211 205 195 212 235 230 227 245 265 247 232 211 224 229 244 249 253 262 269 270 272 279 282 284 292 302 308 308 304 301
215 222 238 237 242 252 223 224 224 224 229 235 236 230 219 211 199 224 234 234 228 243 270 268 225 224 232 234 250 266 264 259 258 260 263 270 273 277 294 305 310 307 299
217 210 222 239 240 249 232 218 224 228 233 232 241 236 237 229 216 220 240 227 235 232 239 233 254 243 248 251 242 249 261 269 256 252 251 263 265 270 290 297 300 304 294
229 226 219 226 240 247 246 232 230 226 225 244 244 242 241 241 235 224 228 241 234 232 241 238 240 248 250 260 268 262 262 262 273 280 266 259 272 287 289 301 305 302 294
234 235 236 231 235 246 249 246 241 238 231 232 247 248 246 245 246 237 231 233 236 232 230 238 235 240 253 260 263 268 273 266 239 253 258 267 276 277 281 302 304 319 312
239 239 239 242 240 244 249 250 248 244 245 242 242 252 256 250 252 251 243 240 243 242 240 240 243 241 239 252 261 265 269 264 265 251 259 267 271 273 287 294 293 308 299
239 241 242 243 245 245 246 247 247 247 249 250 247 247 253 258 257 256 254 251 246 240 240 245 244 247 236 238 243 253 263 267 273 270 250 257 256 269 282 285 295 299 295
241 240 241 243 244 244 246 248 248 245 247 249 252 252 251 256 261 260 259 256 253 248 242 240 244 247 250 240 242 254 263 251 256 268 256 255 256 261 269 286 292 284 280
239 240 240 242 244 246 248 250 249 247 248 249 254 256 255 255 258 259 260 263 262 257 250 245 241 245 249 246 239 241 239 250 257 256 261 266 264 268 267 275 287 282 302
237 239 240 242 244 246 248 250 251 246 248 251 254 254 258 259 257 258 259 261 260 255 250 246 244 240 232 225 234 240 250 258 264 257 263 268 271 267 268 266 283 294 302
238 240 242 243 245 249 251 253 252 245 241 249 253 253 253 256 259 257 255 258 259 257 256 247 238 240 233 250 265 249 253 258 253 261 268 267 263 251 246 260 277 287 299
240 238 242 246 249 253 255 255 249 245 247 250 248 253 253 255 258 256 253 254 253 256 254 244 233 237 247 264 262 246 260 256 249 259 255 253 240 229 241 262 265 286 306